sat.trackr.live / text

‹ back to catalog

STARLINK-1727

NORAD 46335 · 2020-062L

PAYLOAD ACTIVE UNKNOWN

§ Identity

Operator
Country
US
Launch date
2020-09-03
Launch site
AFETR
Launch vehicle
Mass (kg)
RCS (m²)

Purposes: comms

External: N2YO · Heavens-Above · Gunter

§ Orbital elements

Epoch: 2026-05-24T21:07:32.215872Z

Period
89.40 min
Inclination
53.0272°
Eccentricity
0.0011750
Mean motion
16.10763661 rev/d
Perigee alt
237.0 km
Apogee alt
252.5 km
Semi-major
6,622.9 km
B*
8.0897e-4
RAAN
311.8126°
Arg perigee
280.5167°
Mean anomaly
79.4542°
Rev number
31,695

§ Raw data

STARLINK-17271 46335U 20062L   26144.88023398  .00827383  39672-3  80897-3 0  99952 46335  53.0272 311.8126 0011750 280.5167  79.4542 16.10763661316959

JSON: /api/v1/satellites/46335 · /tle

For live sub-satellite position, see the globe view (requires WebGL).

§ Visibility from observer

Set your observer location to see the next 7 days of passes ≥ 10°. The values pass through the URL so the page stays shareable.

No JS? Fill the form by hand. The geolocation button needs JavaScript.